Weather in Katy Wroclawskie

Poland     51°01′33″N   16°46′00″E
temp.,
°C
wind,
m/s
gust,
m/s
humid.,
%
clouds,
%
prec.,
mm/h
press.,
hPa
HPBL,
m
5 august, thu
thu523:00+16s1178100 0.0 101314
02:00+15s0081100 0.0 101211
05:00+15ene1181100 0.0 101114
08:00+17ese3475100 0.0 1010334
11:00+15se2389100 1.9 1010345
14:00+15nne2493100 3.9 1009301
17:00+15nnw2495100 3.5 1009276
20:00+14nw3596100 6.0 1008236
6 august, fri
fri623:00+14wnw3596100 0.6 1008213
02:00+14wnw3692100 0.7 1007174
05:00+14w3791100 0.2 1006203
08:00+16wnw47815 0.3 1007359
11:00+20wnw45626 0.6 1007981
14:00+23wnw464659 0.9 10062028
17:00+21ne225799 0.0 1006749
20:00+17s22715 0.0 100640
7 august, sat
sat723:00+16wsw22804 0.0 100725
02:00+15wsw35840 0.0 100787
05:00+14wsw348599 0.0 100875
08:00+18wsw3673100 0.0 1009333
11:00+22wsw455796 0.0 10091229
14:00+25sw34443 0.0 10081862
17:00+26ssw45445 0.0 10071606
20:00+22se3363100 0.0 100722
8 august, sun
sun823:00+18ese2369100 0.0 100756
02:00+18ese3974100 0.0 1006188
05:00+17s227993 0.0 100523
08:00+18wnw8148123 0.1 1008670
11:00+22wnw8115996 0.1 10101209
14:00+24wnw684641 0.1 10121961
17:00+22sw145681 0.0 1013551
20:00+20w4857100 0.0 1015317
9 august, mon
mon923:00+17sw4964100 0.0 1016344
02:00+15sw36775 0.0 1018137
05:00+13sw34840 0.0 101969
08:00+17sw237033 0.0 1020260
11:00+21sw225481 0.0 10201231
14:00+23ssw3442100 0.0 10192062
17:00+21ssw4453100 0.0 1019696
20:00+19w356358 0.0 102096